Location: Sungai Buloh
(3.1000°N, 113.0000°E)
Time: 17:21:35
(UTC+00:00)

MAQSAT/ARIANE V - Pass Details

Date: 12 January 2026
Orbit: 261 x 31469 km, 6.9° (Epoch: 9 February)

Event Time Altitude Azimuth Distance (km) Brightness Sun altitude
Exits shadow 21:06:27 57° 338° (NNW) 728 2.1 -22.0°
Maximum altitude 21:06:47 60° 4° (N) 755 2.3 -22.0°
Drops below altitude 10° 21:16:43 10° 83° (E) 5,235 7.6 -19.7°
Sets 21:27:23 0° 85° (E) 9,624 9.3 -17.2°
